GW0982 Weather Reports


Display with metric or nautical units.
time (UTC)temp
F
wind
direction
speed
MPH
gust
MPH
rain 1hr
in
rain 24hr
in
rain mn
in
humidity
%
barometer
mb
20260505073516 44 252 0.0 0.0 0.00 0.00 0.00 54 1014.7
20260505073014 44 252 0.0 0.0 0.00 0.00 0.00 54 1014.7
20260505072509 44 246 0.0 0.0 0.00 0.00 0.00 53 1014.7
20260505072006 44 279 0.0 0.0 0.00 0.00 0.00 52 1014.7
20260505071501 45 247 0.0 0.0 0.00 0.00 0.00 52 1014.6
20260505071000 45 240 0.0 0.0 0.00 0.00 0.00 51 1014.2
20260505070456 45 2 0.0 1.0 0.00 0.00 0.00 49 1014.2
20260505065952 46 249 0.0 0.0 0.00 0.00 0.00 50 1014.5
20260505065448 46 242 0.0 0.0 0.00 0.00 0.00 49 1014.4
20260505064945 46 255 0.0 0.0 0.00 0.00 0.00 50 1014.4
20260505064442 46 262 0.0 0.0 0.00 0.00 0.00 50 1014.2
20260505063941 46 252 0.0 0.0 0.00 0.00 0.00 50 1014.5
20260505063437 47 281 0.0 0.0 0.00 0.00 0.00 48 1014.4
20260505062933 48 243 0.0 0.0 0.00 0.00 0.00 48 1014.4
20260505062431 48 235 0.0 0.0 0.00 0.00 0.00 45 1014.4
20260505061927 49 310 2.0 2.0 0.00 0.00 0.00 45 1013.9
20260505061426 49 333 0.0 1.0 0.00 0.00 0.00 41 1014.1
20260505060923 48 253 0.0 0.0 0.00 0.00 0.00 46 1014.0
20260505060420 49 213 0.0 0.0 0.00 0.00 0.00 43 1014.0
20260505055916 49 249 0.0 0.0 0.00 0.00 0.00 44 1014.0
20260505055412 50 289 1.0 1.0 0.00 0.00 0.00 41 1014.0
20260505054909 49 237 0.0 0.0 0.00 0.00 0.00 41 1013.9
20260505054406 49 232 0.0 0.0 0.00 0.00 0.00 45 1013.9
20260505053904 49 229 0.0 0.0 0.00 0.00 0.00 45 1013.8
20260505053401 49 286 1.0 1.0 0.00 0.00 0.00 46 1013.8
20260505052858 50 318 1.0 1.0 0.00 0.00 0.00 45 1013.8
20260505052355 49 271 0.0 1.0 0.00 0.00 0.00 46 1013.6
20260505051852 50 263 0.0 0.0 0.00 0.00 0.00 46 1013.6
20260505051349 51 242 0.0 0.0 0.00 0.00 0.00 43 1013.4
20260505050847 51 243 0.0 0.0 0.00 0.00 0.00 42 1013.5
20260505050346 52 257 0.0 0.0 0.00 0.00 0.00 43 1013.4
20260505041313 55 236 0.0 0.0 0.00 0.00 0.00 39 1012.7
20260505040810 55 262 0.0 0.0 0.00 0.00 0.00 39 1012.7
20260505040307 55 265 0.0 0.0 0.00 0.00 0.00 38 1012.6
20260505035804 55 250 0.0 0.0 0.00 0.00 0.00 39 1012.7
20260505035259 56 255 0.0 0.0 0.00 0.00 0.00 39 1012.7
20260505034757 56 251 0.0 0.0 0.00 0.00 0.00 38 1012.5
20260505034254 56 247 0.0 0.0 0.00 0.00 0.00 38 1012.5
20260505033750 56 248 0.0 0.0 0.00 0.00 0.00 40 1012.5
20260505033248 56 242 0.0 0.0 0.00 0.00 0.00 43 1012.4
20260505032746 56 295 0.0 0.0 0.00 0.00 0.00 41 1012.2
20260505032241 56 240 0.0 0.0 0.00 0.00 0.00 42 1012.0
20260505031739 57 240 0.0 0.0 0.00 0.00 0.00 46 1012.0
20260505031235 58 240 0.0 0.0 0.00 0.00 0.00 44 1012.0
20260505030732 59 238 0.0 0.0 0.00 0.00 0.00 41 1011.9
20260505030228 60 235 0.0 0.0 0.00 0.00 0.00 40 1011.7
20260505025724 61 237 0.0 0.0 0.00 0.00 0.00 38 1011.5
20260505025223 62 203 0.0 0.0 0.00 0.00 0.00 35 1011.5
20260505024720 63 250 0.0 0.0 0.00 0.00 0.00 34 1011.6
20260505024217 64 245 0.0 0.0 0.00 0.00 0.00 31 1011.4
20260505023715 64 245 0.0 0.0 0.00 0.00 0.00 29 1011.3
20260505023212 65 270 4.0 5.0 0.00 0.00 0.00 26 1011.5
20260505022709 66 266 0.0 0.0 0.00 0.00 0.00 24 1011.6
20260505022206 66 272 2.0 2.0 0.00 0.00 0.00 24 1011.4
20260505021703 66 247 0.0 0.0 0.00 0.00 0.00 25 1011.5
20260505021200 66 287 1.0 1.0 0.00 0.00 0.00 24 1011.2
20260505020655 66 291 0.0 1.0 0.00 0.00 0.00 25 1011.4
20260505020151 67 283 0.0 1.0 0.00 0.00 0.00 24 1011.3
20260505015649 67 254 0.0 0.0 0.00 0.00 0.00 24 1011.4
20260505015145 67 247 0.0 0.0 0.00 0.00 0.00 24 1011.2
20260505014642 66 234 0.0 0.0 0.00 0.00 0.00 27 1011.3
20260505014139 66 261 0.0 0.0 0.00 0.00 0.00 28 1011.7
20260505013637 66 271 2.0 2.0 0.00 0.00 0.00 27 1011.5
20260505013133 66 277 2.0 2.0 0.00 0.00 0.00 27 1011.4
20260505012632 67 257 0.0 0.0 0.00 0.00 0.00 26 1011.4
20260505012128 67 248 0.0 0.0 0.00 0.00 0.00 26 1011.5
20260505011624 66 251 0.0 0.0 0.00 0.00 0.00 26 1011.4
20260505011121 66 290 2.0 3.0 0.00 0.00 0.00 25 1011.5
20260505010616 67 291 2.0 2.0 0.00 0.00 0.00 25 1011.4
20260505010114 68 275 0.0 1.0 0.00 0.00 0.00 25 1011.5
20260505005610 68 299 3.0 5.0 0.00 0.00 0.00 25 1011.6
20260505005107 67 250 0.0 0.0 0.00 0.00 0.00 26 1011.5
20260505004604 67 282 2.0 2.0 0.00 0.00 0.00 25 1011.5
20260505004101 67 287 6.0 7.0 0.00 0.00 0.00 26 1011.5
20260505003558 67 225 0.0 0.0 0.00 0.00 0.00 27 1011.7
20260505003055 66 234 0.0 0.0 0.00 0.00 0.00 27 1011.9
20260505002550 67 232 1.0 1.0 0.00 0.00 0.00 28 1011.7
20260505002049 66 237 0.0 0.0 0.00 0.00 0.00 28 1011.9
20260505001546 66 196 0.0 0.0 0.00 0.00 0.00 27 1011.7
20260505001043 67 245 0.0 0.0 0.00 0.00 0.00 27 1011.5
20260505000541 66 276 3.0 5.0 0.00 0.00 0.00 27 1011.9
20260505000038 67 276 5.0 7.0 0.00 0.00 0.00 27 1011.9
20260504235535 66 257 1.0 1.0 0.00 0.00 0.00 26 1011.9
20260504235031 67 268 5.0 6.0 0.00 0.00 0.00 25 1011.9
20260504234528 67 258 0.0 1.0 0.00 0.00 0.00 26 1011.9
20260504234025 66 265 3.0 3.0 0.00 0.00 0.00 29 1012.0
20260504233520 65 258 4.0 6.0 0.00 0.00 0.00 28 1012.0
20260504233018 66 255 3.0 3.0 0.00 0.00 0.00 27 1012.0
20260504232515 67 288 1.0 3.0 0.00 0.00 0.00 26 1012.0
20260504232012 67 298 7.0 9.0 0.00 0.00 0.00 26 1012.0
20260504231509 67 244 0.0 0.0 0.00 0.00 0.00 25 1012.2
20260504231005 66 278 3.0 3.0 0.00 0.00 0.00 29 1012.2
20260504230501 65 270 3.0 3.0 0.00 0.00 0.00 27 1012.2
20260504230000 65 274 1.0 2.0 0.00 0.00 0.00 27 1012.3
20260504225457 65 277 5.0 6.0 0.00 0.00 0.00 28 1011.9
20260504224954 68 296 4.0 6.0 0.00 0.00 0.00 26 1012.1
20260504224450 68 251 1.0 1.0 0.00 0.00 0.00 26 1012.3
20260504223947 69 256 0.0 0.0 0.00 0.00 0.00 27 1012.4
20260504223444 68 308 0.0 1.0 0.00 0.00 0.00 26 1012.2
20260504222939 68 228 1.0 2.0 0.00 0.00 0.00 26 1012.3
20260504222437 68 266 0.0 0.0 0.00 0.00 0.00 26 1012.5
20260504221935 67 267 0.0 0.0 0.00 0.00 0.00 27 1012.4
20260504221431 68 287 0.0 0.0 0.00 0.00 0.00 27 1012.6
20260504220928 68 294 4.0 5.0 0.00 0.00 0.00 26 1012.5
20260504220425 67 166 1.0 1.0 0.00 0.00 0.00 27 1012.6
20260504215922 66 160 0.0 1.0 0.00 0.00 0.00 29 1012.6
20260504215419 66 305 2.0 2.0 0.00 0.00 0.00 28 1012.6
20260504214915 66 210 0.0 0.0 0.00 0.00 0.00 28 1012.6
20260504214412 68 332 0.0 0.0 0.00 0.00 0.00 27 1012.6
20260504213909 69 269 4.0 5.0 0.00 0.00 0.00 27 1012.8
20260504213404 70 280 4.0 5.0 0.00 0.00 0.00 26 1012.7
20260504212903 68 267 0.0 0.0 0.00 0.00 0.00 29 1012.6
20260504212358 67 254 0.0 0.0 0.00 0.00 0.00 29 1012.7
20260504211856 67 188 0.0 0.0 0.00 0.00 0.00 29 1012.7
20260504211352 68 257 0.0 0.0 0.00 0.00 0.00 29 1013.2
20260504210849 66 151 0.0 0.0 0.00 0.00 0.00 30 1012.9
20260504210346 66 275 3.0 5.0 0.00 0.00 0.00 30 1013.2
20260504205843 66 251 0.0 0.0 0.00 0.00 0.00 31 1013.1
20260504205341 66 211 0.0 0.0 0.00 0.00 0.00 31 1013.2
20260504204839 67 168 1.0 1.0 0.00 0.00 0.00 30 1013.3
20260504204337 65 182 1.0 1.0 0.00 0.00 0.00 31 1013.1
20260504203836 66 157 3.0 7.0 0.00 0.00 0.00 31 1013.2
20260504203333 64 303 4.0 5.0 0.00 0.00 0.00 33 1013.2
20260504202828 66 222 0.0 0.0 0.00 0.00 0.00 31 1013.2
20260504202326 66 219 0.0 1.0 0.00 0.00 0.00 29 1013.3
20260504201822 66 150 3.0 5.0 0.00 0.00 0.00 31 1013.2
20260504201320 65 152 0.0 0.0 0.00 0.00 0.00 31 1013.7
20260504200817 64 291 0.0 0.0 0.00 0.00 0.00 31 1013.4
20260504200314 64 240 0.0 0.0 0.00 0.00 0.00 34 1013.5
20260504195810 64 168 0.0 0.0 0.00 0.00 0.00 34 1013.6
20260504195306 63 216 1.0 1.0 0.00 0.00 0.00 35 1013.5
20260504194803 63 231 0.0 0.0 0.00 0.00 0.00 35 1013.7
20260504194259 63 219 1.0 2.0 0.00 0.00 0.00 36 1013.6
20260504193755 63 258 0.0 0.0 0.00 0.00 0.00 36 1013.8
20260504193253 61 223 0.0 0.0 0.00 0.00 0.00 36 1013.8
20260504192751 60 256 0.0 0.0 0.00 0.00 0.00 38 1013.7
20260504192249 60 257 1.0 2.0 0.00 0.00 0.00 37 1013.9
20260504191747 61 280 4.0 5.0 0.00 0.00 0.00 37 1013.7
20260504191244 60 251 1.0 1.0 0.00 0.00 0.00 40 1013.7
20260504190739 59 280 0.0 1.0 0.00 0.00 0.00 41 1014.0
20260504190236 59 227 0.0 1.0 0.00 0.00 0.00 42 1013.9
20260504185732 59 286 1.0 1.0 0.00 0.00 0.00 43 1013.8
20260504185229 59 256 0.0 0.0 0.00 0.00 0.00 43 1014.0
20260504184725 58 160 2.0 2.0 0.00 0.00 0.00 43 1013.9
20260504184221 59 249 0.0 0.0 0.00 0.00 0.00 44 1014.1
20260504183717 59 208 0.0 0.0 0.00 0.00 0.00 45 1014.0
20260504183214 58 258 0.0 0.0 0.00 0.00 0.00 45 1014.0
20260504182713 58 261 0.0 0.0 0.00 0.00 0.00 45 1014.1
20260504182209 58 325 2.0 2.0 0.00 0.00 0.00 46 1014.5
20260504181707 57 225 0.0 0.0 0.00 0.00 0.00 49 1014.1
20260504181204 57 246 0.0 0.0 0.00 0.00 0.00 49 1014.4
20260504180703 56 277 0.0 1.0 0.00 0.00 0.00 51 1014.5
20260504180202 55 270 0.0 1.0 0.00 0.00 0.00 51 1014.5
20260504175658 55 276 0.0 0.0 0.00 0.00 0.00 53 1014.4
20260504175155 55 248 0.0 0.0 0.00 0.00 0.00 53 1014.4
20260504174653 54 241 0.0 0.0 0.00 0.00 0.00 54 1014.6
20260504174150 53 272 0.0 0.0 0.00 0.00 0.00 54 1014.5
20260504173647 53 265 0.0 0.0 0.00 0.00 0.00 55 1014.7
20260504173144 53 224 0.0 0.0 0.00 0.00 0.00 57 1014.4
20260504172641 53 249 0.0 0.0 0.00 0.00 0.00 56 1014.6
20260504172137 53 243 0.0 0.0 0.00 0.00 0.00 58 1014.5
20260504171633 52 260 0.0 0.0 0.00 0.00 0.00 57 1014.6
20260504171131 52 261 0.0 0.0 0.00 0.00 0.00 57 1014.6
20260504170627 52 264 0.0 0.0 0.00 0.00 0.00 58 1014.5
20260504170125 51 263 0.0 0.0 0.00 0.00 0.00 60 1014.7
20260504151010 47 246 0.0 0.0 0.00 0.00 0.00 65 1014.4
20260504150508 47 258 0.0 0.0 0.00 0.00 0.00 66 1014.4
20260504140933 45 238 0.0 0.0 0.00 0.00 0.00 71 1013.9
20260504140430 44 214 0.0 0.0 0.00 0.00 0.00 73 1013.8
20260504130355 42 269 0.0 0.0 0.00 0.00 0.00 75 1013.2
20260504120318 42 252 0.0 0.0 0.00 0.00 0.00 73 1012.8
20260504110242 42 248 0.0 0.0 0.00 0.00 0.00 69 1012.3
20260504100200 43 262 0.0 0.0 0.00 0.00 0.00 66 1011.6
20260504090122 46 253 0.0 0.0 0.00 0.00 0.00 61 1011.4
20260504081552 48 251 0.0 0.0 0.00 0.00 0.00 57 1011.1
20260504081048 48 245 0.0 0.0 0.00 0.00 0.00 56 1011.2
20260504080545 48 257 0.0 0.0 0.00 0.00 0.00 56 1011.1